Flag for Brazil Weather past 2 weeks in Brasilia, Distrito Federal, Brazil

Now
86 °F

Scattered clouds.


Feels Like: 84 °F
Forecast: N/A
Wind: 6 mph from Southwest

Location: Brasilia Aeroporto

Current Time: Oct 20, 2014 at 7:29:52 PM

Latest Report: Oct 20, 2014 at 6:00 PM


Visibility: N/A

Pressure: 29.95 "Hg

Humidity: 31%

Dew point: 52 °F

Location of BrasiliaLocation

Historic Weather in Brasilia — Graph

°F

Brasilia temperature yesterday

Maximum temperature yesterday: 95 °F (at 4:00 PM)
Minimum temperature yesterday: 68 °F (at 4:00 AM)
Average temperature yesterday: 82 °F

Past Weeks' High & Low Weather Summary

 TemperatureHumidityPressure
High97 °F (Oct 15, 3:00 PM)60% (Oct 8, 4:00 AM)30.24 "Hg (Oct 8, 4:00 AM)
Low59 °F (Oct 7, 5:00 AM)12% (Oct 15, 3:00 PM)29.95 "Hg (Oct 18, 4:00 PM)
Average79 °F33%30.09 "Hg
* Reported Oct 5 5:00 PM — Oct 20 6:00 PM, Brasilia, Weather by CustomWeather, © 2014

Note: Actual official high and low records may vary slightly from our data, if they occured in-between our weather recording intervals... More about our weather records

Advertising

Brasilia weather history for previous 24 hours

 ConditionsComfort  
Time TempWeatherWind HumidityBarometerVisibility
6:00 PM
Oct 20
86 °FScattered clouds.6 mph31%29.95 "HgN/A
5:00 PM91 °FScattered clouds.7 mph26%29.95 "HgN/A
4:00 PM91 °FScattered clouds.6 mph26%29.98 "HgN/A
3:00 PM91 °FScattered clouds.7 mph26%30.01 "HgN/A
2:00 PM90 °FPassing clouds.7 mph29%30.04 "HgN/A
1:00 PM88 °FPassing clouds.9 mph33%30.07 "HgN/A
12:00 PM86 °FSunny.8 mph35%30.09 "Hg10 mi
11:00 AM82 °FSunny.13 mph42%30.12 "Hg10 mi
10:00 AM81 °FSunny.10 mph45%30.12 "Hg10 mi
9:00 AM77 °FSunny.12 mph51%30.12 "Hg10 mi
8:00 AM75 °FSunny.9 mph54%30.09 "Hg10 mi
7:00 AM73 °FClear.7 mph57%30.07 "Hg10 mi
6:00 AM73 °FPassing clouds.6 mph53%30.04 "HgN/A
5:00 AM75 °FPassing clouds.8 mph50%30.01 "HgN/A
4:00 AM73 °FPassing clouds.6 mph57%30.01 "HgN/A
3:00 AM77 °FPassing clouds.3 mph51%30.01 "HgN/A
1:00 AM77 °FPassing clouds.No wind47%30.04 "HgN/A
12:00 AM81 °FPassing clouds.5 mph39%30.04 "HgN/A
11:00 PM
Oct 19
81 °FPassing clouds.2 mph39%30.04 "HgN/A
10:00 PM79 °FPassing clouds.3 mph45%30.04 "Hg6 mi
9:00 PM84 °FPassing clouds.No wind35%30.01 "HgN/A
8:00 PM86 °FPassing clouds.5 mph33%29.98 "HgN/A
7:00 PM88 °FPassing clouds.3 mph31%29.95 "HgN/A
Weather by CustomWeather, © 2014

See weather overviewHow to use our weather pages